| time (UTC) | temp F | wind direction | speed MPH | gust MPH | rain 1hr in | rain 24hr in | rain mn in | humidity % | barometer mb |
| 20260504220739 | 78 | 10 | 19.0 | 26.0 | 0.00 | 0.00 | 0.00 | 28 | 1003.3 |
| 20260504220224 | 78 | 5 | 16.0 | 24.0 | 0.00 | 0.00 | 0.00 | 28 | 1003.2 |
| 20260504220051 | 78 | 347 | 15.0 | 24.0 | 0.00 | 0.00 | 0.00 | 28 | 1001.9 |
| 20260504215736 | 78 | 5 | 15.0 | 24.0 | 0.00 | 0.00 | 0.00 | 29 | 1003.3 |
| 20260504215248 | 79 | 24 | 15.0 | 27.0 | 0.00 | 0.00 | 0.00 | 31 | 1003.2 |
| 20260504214733 | 79 | 16 | 16.0 | 27.0 | 0.00 | 0.00 | 0.00 | 29 | 1003.4 |
| 20260504214559 | 79 | 335 | 19.0 | 27.0 | 0.00 | 0.00 | 0.00 | 29 | 1001.9 |
| 20260504214500 | 79 | 305 | 17.0 | 27.0 | 0.00 | 0.00 | 0.00 | 28 | 1001.9 |
| 20260504214243 | 79 | 333 | 14.0 | 23.0 | 0.00 | 0.00 | 0.00 | 31 | 1003.3 |
| 20260504213725 | 79 | 360 | 15.0 | 24.0 | 0.00 | 0.00 | 0.00 | 32 | 1003.2 |
| 20260504213239 | 79 | 355 | 16.0 | 24.0 | 0.00 | 0.00 | 0.00 | 30 | 1003.2 |
| 20260504213011 | 79 | 333 | 18.0 | 24.0 | 0.00 | 0.00 | 0.00 | 29 | 1001.9 |
| 20260504212749 | 80 | 355 | 14.0 | 24.0 | 0.00 | 0.00 | 0.00 | 31 | 1003.2 |
| 20260504212233 | 80 | 30 | 14.0 | 23.0 | 0.00 | 0.00 | 0.00 | 33 | 1003.2 |
| 20260504211746 | 80 | 338 | 17.0 | 25.0 | 0.00 | 0.00 | 0.00 | 31 | 1003.1 |
| 20260504211557 | 79 | 5 | 16.0 | 25.0 | 0.00 | 0.00 | 0.00 | 31 | 1001.7 |
| 20260504211237 | 80 | 350 | 17.0 | 25.0 | 0.00 | 0.00 | 0.00 | 32 | 1003.1 |
| 20260504210746 | 80 | 29 | 14.0 | 26.0 | 0.00 | 0.00 | 0.00 | 32 | 1003.0 |
| 20260504210238 | 80 | 12 | 19.0 | 26.0 | 0.00 | 0.00 | 0.00 | 31 | 1003.0 |
| 20260504210054 | 80 | 340 | 18.0 | 25.0 | 0.00 | 0.00 | 0.00 | 33 | 1001.7 |
| 20260504205721 | 81 | 351 | 11.0 | 19.0 | 0.00 | 0.00 | 0.00 | 34 | 1003.0 |
| 20260504205232 | 81 | 351 | 14.0 | 26.0 | 0.00 | 0.00 | 0.00 | 32 | 1002.9 |
| 20260504204748 | 81 | 360 | 17.0 | 26.0 | 0.00 | 0.00 | 0.00 | 33 | 1002.9 |
| 20260504204559 | 80 | 340 | 15.0 | 23.0 | 0.00 | 0.00 | 0.00 | 33 | 1001.5 |
| 20260504204232 | 81 | 355 | 14.0 | 22.0 | 0.00 | 0.00 | 0.00 | 32 | 1003.0 |
| 20260504203742 | 81 | 327 | 15.0 | 22.0 | 0.00 | 0.00 | 0.00 | 32 | 1002.9 |
| 20260504203226 | 81 | 355 | 14.0 | 21.0 | 0.00 | 0.00 | 0.00 | 30 | 1002.8 |
| 20260504203106 | 81 | 15 | 15.0 | 21.0 | 0.00 | 0.00 | 0.00 | 34 | 1001.5 |
| 20260504202752 | 81 | 321 | 16.0 | 24.0 | 0.00 | 0.00 | 0.00 | 32 | 1002.7 |
| 20260504202244 | 81 | 336 | 16.0 | 24.0 | 0.00 | 0.00 | 0.00 | 32 | 1002.9 |
| 20260504201728 | 82 | 346 | 16.0 | 22.0 | 0.00 | 0.00 | 0.00 | 32 | 1002.9 |
| 20260504201541 | 82 | 331 | 10.0 | 22.0 | 0.00 | 0.00 | 0.00 | 31 | 1001.5 |
| 20260504201241 | 82 | 321 | 14.0 | 23.0 | 0.00 | 0.00 | 0.00 | 31 | 1003.1 |
| 20260504200724 | 82 | 350 | 15.0 | 24.0 | 0.00 | 0.00 | 0.00 | 31 | 1002.9 |
| 20260504200235 | 82 | 304 | 13.0 | 24.0 | 0.00 | 0.00 | 0.00 | 31 | 1002.9 |
| 20260504200047 | 81 | 360 | 16.0 | 24.0 | 0.00 | 0.00 | 0.00 | 32 | 1001.5 |
| 20260504195747 | 82 | 351 | 15.0 | 25.0 | 0.00 | 0.00 | 0.00 | 31 | 1002.8 |
| 20260504195228 | 83 | 360 | 13.0 | 26.0 | 0.00 | 0.00 | 0.00 | 33 | 1002.7 |
| 20260504194732 | 82 | 319 | 16.0 | 21.0 | 0.00 | 0.00 | 0.00 | 33 | 1002.8 |
| 20260504194600 | 82 | 328 | 13.0 | 22.0 | 0.00 | 0.00 | 0.00 | 32 | 1001.6 |
| 20260504194246 | 83 | 360 | 14.0 | 23.0 | 0.00 | 0.00 | 0.00 | 31 | 1002.8 |
| 20260504193736 | 83 | 346 | 16.0 | 23.0 | 0.00 | 0.00 | 0.00 | 31 | 1002.7 |
| 20260504193246 | 84 | 351 | 12.0 | 25.0 | 0.00 | 0.00 | 0.00 | 30 | 1002.6 |
| 20260504193036 | 84 | 338 | 15.0 | 25.0 | 0.00 | 0.00 | 0.00 | 30 | 1001.3 |
| 20260504192728 | 84 | 319 | 13.0 | 20.0 | 0.00 | 0.00 | 0.00 | 30 | 1002.5 |
| 20260504192239 | 84 | 323 | 8.0 | 23.0 | 0.00 | 0.00 | 0.00 | 28 | 1002.6 |
| 20260504191721 | 85 | 291 | 14.0 | 23.0 | 0.00 | 0.00 | 0.00 | 28 | 1002.5 |
| 20260504191545 | 84 | 308 | 12.0 | 21.0 | 0.00 | 0.00 | 0.00 | 28 | 1001.3 |
| 20260504191231 | 85 | 319 | 12.0 | 24.0 | 0.00 | 0.00 | 0.00 | 28 | 1002.5 |
| 20260504190741 | 84 | 300 | 14.0 | 24.0 | 0.00 | 0.00 | 0.00 | 28 | 1002.5 |
| 20260504190224 | 84 | 321 | 9.0 | 21.0 | 0.00 | 0.00 | 0.00 | 30 | 1002.4 |
| 20260504190108 | 83 | 283 | 13.0 | 25.0 | 0.00 | 0.00 | 0.00 | 29 | 1001.2 |
| 20260504185736 | 83 | 317 | 14.0 | 25.0 | 0.00 | 0.00 | 0.00 | 28 | 1002.4 |
| 20260504185248 | 84 | 318 | 15.0 | 26.0 | 0.00 | 0.00 | 0.00 | 26 | 1002.3 |
| 20260504184739 | 84 | 9 | 13.0 | 22.0 | 0.00 | 0.00 | 0.00 | 27 | 1002.3 |
| 20260504184535 | 84 | 315 | 13.0 | 22.0 | 0.00 | 0.00 | 0.00 | 28 | 1001.2 |
| 20260504184224 | 84 | 313 | 13.0 | 20.0 | 0.00 | 0.00 | 0.00 | 29 | 1002.4 |
| 20260504183733 | 84 | 285 | 12.0 | 21.0 | 0.00 | 0.00 | 0.00 | 29 | 1002.4 |
| 20260504183241 | 83 | 290 | 14.0 | 21.0 | 0.00 | 0.00 | 0.00 | 29 | 1002.3 |
| 20260504183036 | 83 | 303 | 15.0 | 23.0 | 0.00 | 0.00 | 0.00 | 29 | 1001.2 |
| 20260504182722 | 83 | 318 | 13.0 | 23.0 | 0.00 | 0.00 | 0.00 | 30 | 1002.5 |
| 20260504182234 | 83 | 304 | 17.0 | 25.0 | 0.00 | 0.00 | 0.00 | 28 | 1002.6 |
| 20260504181746 | 83 | 303 | 15.0 | 25.0 | 0.00 | 0.00 | 0.00 | 28 | 1002.6 |
| 20260504181524 | 82 | 301 | 13.0 | 25.0 | 0.00 | 0.00 | 0.00 | 30 | 1001.4 |
| 20260504181229 | 83 | 332 | 16.0 | 25.0 | 0.00 | 0.00 | 0.00 | 29 | 1002.6 |
| 20260504180739 | 83 | 294 | 14.0 | 22.0 | 0.00 | 0.00 | 0.00 | 27 | 1002.6 |
| 20260504180222 | 83 | 288 | 14.0 | 22.0 | 0.00 | 0.00 | 0.00 | 29 | 1002.7 |
| 20260504180029 | 83 | 294 | 15.0 | 22.0 | 0.00 | 0.00 | 0.00 | 28 | 1001.5 |
| 20260504175730 | 83 | 313 | 13.0 | 22.0 | 0.00 | 0.00 | 0.00 | 31 | 1002.6 |
| 20260504175240 | 83 | 316 | 15.0 | 24.0 | 0.00 | 0.00 | 0.00 | 32 | 1002.7 |
| 20260504174723 | 83 | 332 | 17.0 | 24.0 | 0.00 | 0.00 | 0.00 | 29 | 1002.8 |
| 20260504174529 | 83 | 309 | 14.0 | 24.0 | 0.00 | 0.00 | 0.00 | 31 | 1001.6 |
| 20260504174236 | 82 | 340 | 15.0 | 21.0 | 0.00 | 0.00 | 0.00 | 32 | 1002.7 |
| 20260504173747 | 82 | 339 | 9.0 | 16.0 | 0.00 | 0.00 | 0.00 | 32 | 1002.8 |
| 20260504173230 | 81 | 319 | 11.0 | 19.0 | 0.00 | 0.00 | 0.00 | 32 | 1002.9 |
| 20260504173027 | 81 | 338 | 11.0 | 23.0 | 0.00 | 0.00 | 0.00 | 33 | 1001.7 |
| 20260504172742 | 81 | 296 | 10.0 | 23.0 | 0.00 | 0.00 | 0.00 | 33 | 1003.0 |
| 20260504172225 | 82 | 277 | 10.0 | 15.0 | 0.00 | 0.00 | 0.00 | 32 | 1003.0 |
| 20260504171733 | 82 | 292 | 10.0 | 21.0 | 0.00 | 0.00 | 0.00 | 33 | 1003.0 |
| 20260504171535 | 81 | 314 | 9.0 | 21.0 | 0.00 | 0.00 | 0.00 | 34 | 1001.9 |
| 20260504171245 | 81 | 292 | 14.0 | 21.0 | 0.00 | 0.00 | 0.00 | 34 | 1003.2 |
| 20260504170727 | 80 | 319 | 10.0 | 19.0 | 0.00 | 0.00 | 0.00 | 35 | 1003.3 |
| 20260504170238 | 80 | 345 | 10.0 | 19.0 | 0.00 | 0.00 | 0.00 | 37 | 1003.2 |
| 20260504160228 | 76 | 279 | 8.0 | 13.0 | 0.00 | 0.00 | 0.00 | 42 | 1003.2 |
| 20260504150741 | 71 | 278 | 6.0 | 11.0 | 0.00 | 0.00 | 0.00 | 45 | 1003.3 |
| 20260504150225 | 71 | 307 | 7.0 | 10.0 | 0.00 | 0.00 | 0.00 | 43 | 1003.2 |
| 20260504141249 | 66 | 303 | 7.0 | 12.0 | 0.00 | 0.00 | 0.00 | 53 | 1003.5 |
| 20260504140731 | 65 | 342 | 7.0 | 14.0 | 0.00 | 0.00 | 0.00 | 55 | 1003.6 |
| 20260504140242 | 65 | 296 | 10.0 | 14.0 | 0.00 | 0.00 | 0.00 | 53 | 1003.7 |
| 20260504130740 | 62 | 325 | 2.0 | 4.0 | 0.00 | 0.00 | 0.00 | 58 | 1003.3 |
| 20260504130222 | 60 | 256 | 1.0 | 2.0 | 0.00 | 0.00 | 0.00 | 60 | 1003.2 |
| 20260504120252 | 51 | 355 | 2.0 | 3.0 | 0.00 | 0.00 | 0.00 | 68 | 1003.2 |
| 20260504110243 | 52 | 171 | 2.0 | 3.0 | 0.00 | 0.00 | 0.00 | 62 | 1003.0 |
| 20260504100242 | 54 | 165 | 5.0 | 7.0 | 0.00 | 0.00 | 0.00 | 59 | 1003.3 |
| 20260504081801 | 54 | 175 | 3.0 | 6.0 | 0.00 | 0.00 | 0.00 | 57 | 1004.6 |
| 20260504081535 | 54 | 179 | 4.0 | 7.0 | 0.00 | 0.00 | 0.00 | 57 | 1003.6 |
| 20260504081224 | 55 | 163 | 4.0 | 7.0 | 0.00 | 0.00 | 0.00 | 57 | 1004.7 |
| 20260504080736 | 55 | 169 | 5.0 | 7.0 | 0.00 | 0.00 | 0.00 | 57 | 1004.8 |
| 20260504080246 | 55 | 175 | 4.0 | 6.0 | 0.00 | 0.00 | 0.00 | 57 | 1004.8 |
| 20260504070236 | 56 | 169 | 5.0 | 6.0 | 0.00 | 0.00 | 0.00 | 56 | 1005.9 |
| 20260504060235 | 57 | 169 | 3.0 | 5.0 | 0.00 | 0.00 | 0.00 | 56 | 1006.7 |
| 20260504050745 | 60 | 169 | 4.0 | 6.0 | 0.00 | 0.00 | 0.00 | 50 | 1007.5 |
| 20260504050226 | 60 | 175 | 5.0 | 6.0 | 0.00 | 0.00 | 0.00 | 50 | 1007.5 |
| 20260504050012 | 60 | 170 | 4.0 | 6.0 | 0.00 | 0.00 | 0.00 | 50 | 1006.5 |
| 20260504045738 | 61 | 177 | 5.0 | 6.0 | 0.00 | 0.00 | 0.00 | 50 | 1007.6 |
| 20260504045222 | 61 | 171 | 5.0 | 7.0 | 0.00 | 0.00 | 0.00 | 50 | 1007.6 |
| 20260504044749 | 62 | 173 | 5.0 | 6.0 | 0.00 | 0.00 | 0.00 | 51 | 1007.6 |
| 20260504044514 | 61 | 158 | 4.0 | 6.0 | 0.00 | 0.00 | 0.00 | 51 | 1006.7 |
| 20260504044235 | 62 | 174 | 4.0 | 6.0 | 0.00 | 0.00 | 0.00 | 51 | 1007.7 |
| 20260504043805 | 63 | 165 | 4.0 | 5.0 | 0.00 | 0.00 | 0.00 | 50 | 1007.7 |
| 20260504043226 | 63 | 163 | 4.0 | 5.0 | 0.00 | 0.00 | 0.00 | 49 | 1007.8 |
| 20260504043106 | 62 | 178 | 3.0 | 5.0 | 0.00 | 0.00 | 0.00 | 49 | 1007.0 |
| 20260504042739 | 63 | 175 | 3.0 | 5.0 | 0.00 | 0.00 | 0.00 | 48 | 1007.9 |
| 20260504042221 | 64 | 173 | 5.0 | 6.0 | 0.00 | 0.00 | 0.00 | 46 | 1007.8 |
| 20260504041734 | 64 | 178 | 3.0 | 5.0 | 0.00 | 0.00 | 0.00 | 44 | 1007.9 |
| 20260504041554 | 63 | 184 | 3.0 | 6.0 | 0.00 | 0.00 | 0.00 | 44 | 1007.0 |
| 20260504041243 | 64 | 173 | 3.0 | 6.0 | 0.00 | 0.00 | 0.00 | 43 | 1008.0 |
| 20260504040724 | 64 | 188 | 4.0 | 6.0 | 0.00 | 0.00 | 0.00 | 42 | 1007.9 |
| 20260504040256 | 65 | 179 | 3.0 | 5.0 | 0.00 | 0.00 | 0.00 | 40 | 1008.0 |
| 20260504040040 | 64 | 178 | 3.0 | 4.0 | 0.00 | 0.00 | 0.00 | 40 | 1007.1 |
| 20260504035745 | 65 | 178 | 2.0 | 4.0 | 0.00 | 0.00 | 0.00 | 39 | 1008.1 |
| 20260504035228 | 65 | 178 | 2.0 | 3.0 | 0.00 | 0.00 | 0.00 | 39 | 1008.2 |
| 20260504034759 | 65 | 178 | 2.0 | 3.0 | 0.00 | 0.00 | 0.00 | 40 | 1008.1 |
| 20260504034522 | 65 | 178 | 1.0 | 3.0 | 0.00 | 0.00 | 0.00 | 40 | 1007.1 |
| 20260504034250 | 65 | 178 | 2.0 | 3.0 | 0.00 | 0.00 | 0.00 | 40 | 1008.2 |
| 20260504033727 | 65 | 178 | 3.0 | 4.0 | 0.00 | 0.00 | 0.00 | 40 | 1008.3 |
| 20260504033241 | 66 | 178 | 3.0 | 4.0 | 0.00 | 0.00 | 0.00 | 40 | 1008.3 |
| 20260504033037 | 65 | 178 | 3.0 | 4.0 | 0.00 | 0.00 | 0.00 | 40 | 1007.3 |
| 20260504032810 | 66 | 178 | 3.0 | 4.0 | 0.00 | 0.00 | 0.00 | 40 | 1008.3 |
| 20260504032232 | 66 | 182 | 3.0 | 4.0 | 0.00 | 0.00 | 0.00 | 39 | 1008.3 |
| 20260504031741 | 66 | 194 | 3.0 | 3.0 | 0.00 | 0.00 | 0.00 | 38 | 1008.4 |
| 20260504031512 | 65 | 194 | 1.0 | 3.0 | 0.00 | 0.00 | 0.00 | 38 | 1007.4 |
| 20260504031225 | 66 | 194 | 2.0 | 3.0 | 0.00 | 0.00 | 0.00 | 38 | 1008.3 |
| 20260504030736 | 66 | 194 | 2.0 | 2.0 | 0.00 | 0.00 | 0.00 | 38 | 1008.4 |
| 20260504030243 | 66 | 194 | 2.0 | 3.0 | 0.00 | 0.00 | 0.00 | 40 | 1008.4 |
| 20260504030018 | 65 | 194 | 1.0 | 3.0 | 0.00 | 0.00 | 0.00 | 40 | 1007.5 |
| 20260504025727 | 66 | 194 | 2.0 | 3.0 | 0.00 | 0.00 | 0.00 | 40 | 1008.5 |
| 20260504025239 | 66 | 194 | 2.0 | 3.0 | 0.00 | 0.00 | 0.00 | 41 | 1008.4 |
| 20260504024723 | 66 | 194 | 2.0 | 3.0 | 0.00 | 0.00 | 0.00 | 41 | 1008.5 |
| 20260504024525 | 65 | 194 | 2.0 | 3.0 | 0.00 | 0.00 | 0.00 | 41 | 1007.6 |
| 20260504024236 | 66 | 194 | 2.0 | 3.0 | 0.00 | 0.00 | 0.00 | 41 | 1008.5 |
| 20260504023745 | 66 | 194 | 2.0 | 3.0 | 0.00 | 0.00 | 0.00 | 41 | 1008.6 |
| 20260504023237 | 66 | 194 | 2.0 | 3.0 | 0.00 | 0.00 | 0.00 | 40 | 1008.6 |
| 20260504023008 | 65 | 194 | 2.0 | 3.0 | 0.00 | 0.00 | 0.00 | 40 | 1007.7 |
| 20260504022749 | 66 | 194 | 2.0 | 3.0 | 0.00 | 0.00 | 0.00 | 40 | 1008.6 |
| 20260504022228 | 66 | 194 | 2.0 | 4.0 | 0.00 | 0.00 | 0.00 | 40 | 1008.7 |
| 20260504021759 | 66 | 194 | 2.0 | 4.0 | 0.00 | 0.00 | 0.00 | 40 | 1008.7 |
| 20260504021554 | 66 | 194 | 2.0 | 4.0 | 0.00 | 0.00 | 0.00 | 40 | 1007.8 |
| 20260504021251 | 67 | 194 | 3.0 | 4.0 | 0.00 | 0.00 | 0.00 | 40 | 1008.7 |
| 20260504020730 | 67 | 194 | 2.0 | 4.0 | 0.00 | 0.00 | 0.00 | 40 | 1008.8 |
| 20260504020243 | 67 | 194 | 3.0 | 5.0 | 0.00 | 0.00 | 0.00 | 40 | 1008.8 |
| 20260504020049 | 66 | 194 | 2.0 | 5.0 | 0.00 | 0.00 | 0.00 | 40 | 1007.9 |
| 20260504015726 | 67 | 194 | 3.0 | 5.0 | 0.00 | 0.00 | 0.00 | 40 | 1008.9 |
| 20260504015238 | 67 | 194 | 2.0 | 3.0 | 0.00 | 0.00 | 0.00 | 39 | 1008.9 |
| 20260504014722 | 68 | 194 | 2.0 | 4.0 | 0.00 | 0.00 | 0.00 | 39 | 1008.8 |
| 20260504014603 | 67 | 194 | 2.0 | 4.0 | 0.00 | 0.00 | 0.00 | 38 | 1007.9 |
| 20260504014502 | 67 | 194 | 2.0 | 5.0 | 0.00 | 0.00 | 0.00 | 38 | 1007.9 |
| 20260504014232 | 68 | 202 | 3.0 | 5.0 | 0.00 | 0.00 | 0.00 | 38 | 1008.8 |
| 20260504013741 | 69 | 194 | 3.0 | 5.0 | 0.00 | 0.00 | 0.00 | 37 | 1008.8 |
| 20260504013224 | 69 | 202 | 3.0 | 4.0 | 0.00 | 0.00 | 0.00 | 36 | 1008.8 |
| 20260504013015 | 69 | 172 | 3.0 | 5.0 | 0.00 | 0.00 | 0.00 | 36 | 1007.9 |
| 20260504012734 | 69 | 172 | 3.0 | 4.0 | 0.00 | 0.00 | 0.00 | 36 | 1008.8 |
| 20260504012247 | 70 | 172 | 2.0 | 5.0 | 0.00 | 0.00 | 0.00 | 36 | 1008.8 |
| 20260504011731 | 70 | 172 | 3.0 | 4.0 | 0.00 | 0.00 | 0.00 | 36 | 1008.8 |
| 20260504011512 | 70 | 172 | 2.0 | 5.0 | 0.00 | 0.00 | 0.00 | 36 | 1008.0 |
| 20260504011245 | 70 | 172 | 3.0 | 5.0 | 0.00 | 0.00 | 0.00 | 35 | 1008.9 |
| 20260504010727 | 71 | 198 | 3.0 | 5.0 | 0.00 | 0.00 | 0.00 | 35 | 1008.9 |
| 20260504010235 | 71 | 196 | 3.0 | 6.0 | 0.00 | 0.00 | 0.00 | 35 | 1009.0 |
| 20260504010013 | 71 | 201 | 3.0 | 6.0 | 0.00 | 0.00 | 0.00 | 34 | 1008.1 |
| 20260504005748 | 71 | 198 | 3.0 | 7.0 | 0.00 | 0.00 | 0.00 | 35 | 1009.0 |
| 20260504005231 | 71 | 203 | 4.0 | 7.0 | 0.00 | 0.00 | 0.00 | 35 | 1009.1 |
| 20260504004744 | 72 | 213 | 5.0 | 9.0 | 0.00 | 0.00 | 0.00 | 34 | 1009.1 |
| 20260504004517 | 71 | 225 | 4.0 | 9.0 | 0.00 | 0.00 | 0.00 | 34 | 1008.3 |
| 20260504004227 | 72 | 219 | 5.0 | 9.0 | 0.00 | 0.00 | 0.00 | 35 | 1009.2 |
| 20260504003738 | 72 | 202 | 5.0 | 8.0 | 0.00 | 0.00 | 0.00 | 34 | 1009.3 |
| 20260504003222 | 72 | 201 | 5.0 | 8.0 | 0.00 | 0.00 | 0.00 | 34 | 1009.2 |
| 20260504003021 | 72 | 211 | 5.0 | 8.0 | 0.00 | 0.00 | 0.00 | 34 | 1008.3 |
| 20260504002732 | 73 | 206 | 5.0 | 10.0 | 0.00 | 0.00 | 0.00 | 33 | 1009.3 |
| 20260504002240 | 73 | 225 | 5.0 | 12.0 | 0.00 | 0.00 | 0.00 | 33 | 1009.3 |
| 20260504001723 | 73 | 211 | 7.0 | 12.0 | 0.00 | 0.00 | 0.00 | 33 | 1009.3 |
| 20260504001526 | 73 | 214 | 7.0 | 12.0 | 0.00 | 0.00 | 0.00 | 32 | 1008.5 |
| 20260504001237 | 74 | 207 | 8.0 | 12.0 | 0.00 | 0.00 | 0.00 | 33 | 1009.4 |
| 20260504000748 | 74 | 180 | 7.0 | 10.0 | 0.00 | 0.00 | 0.00 | 32 | 1009.5 |
| 20260504000230 | 74 | 180 | 7.0 | 10.0 | 0.00 | 0.00 | 0.00 | 32 | 1009.5 |
| 20260504000040 | 73 | 189 | 6.0 | 10.0 | 0.00 | 0.00 | 0.00 | 32 | 1008.6 |
| 20260503235743 | 74 | 182 | 7.0 | 10.0 | 0.00 | 0.00 | 0.00 | 31 | 1009.5 |
| 20260503235227 | 74 | 212 | 6.0 | 10.0 | 0.00 | 0.00 | 0.00 | 31 | 1009.5 |
| 20260503234757 | 74 | 184 | 6.0 | 11.0 | 0.00 | 0.00 | 0.00 | 32 | 1009.4 |
| 20260503234511 | 74 | 201 | 7.0 | 11.0 | 0.00 | 0.00 | 0.00 | 32 | 1008.5 |
| 20260503234247 | 74 | 172 | 7.0 | 11.0 | 0.00 | 0.00 | 0.00 | 32 | 1009.5 |
| 20260503233729 | 74 | 178 | 8.0 | 11.0 | 0.00 | 0.00 | 0.00 | 32 | 1009.6 |
| 20260503233241 | 74 | 192 | 9.0 | 11.0 | 0.00 | 0.00 | 0.00 | 32 | 1009.5 |
| 20260503233016 | 74 | 211 | 8.0 | 11.0 | 0.00 | 0.00 | 0.00 | 33 | 1008.7 |
| 20260503232725 | 75 | 208 | 7.0 | 11.0 | 0.00 | 0.00 | 0.00 | 32 | 1009.6 |
| 20260503232238 | 74 | 207 | 6.0 | 9.0 | 0.00 | 0.00 | 0.00 | 32 | 1009.7 |
| 20260503231722 | 74 | 201 | 4.0 | 8.0 | 0.00 | 0.00 | 0.00 | 33 | 1009.7 |
| 20260503231523 | 74 | 219 | 4.0 | 9.0 | 0.00 | 0.00 | 0.00 | 33 | 1008.7 |
| 20260503231235 | 74 | 209 | 6.0 | 10.0 | 0.00 | 0.00 | 0.00 | 32 | 1009.6 |
| 20260503230740 | 75 | 215 | 7.0 | 15.0 | 0.00 | 0.00 | 0.00 | 31 | 1009.7 |
| 20260503230224 | 74 | 211 | 9.0 | 15.0 | 0.00 | 0.00 | 0.00 | 33 | 1009.6 |
| 20260503230023 | 74 | 194 | 7.0 | 12.0 | 0.00 | 0.00 | 0.00 | 32 | 1008.7 |
| 20260503225755 | 75 | 203 | 5.0 | 9.0 | 0.00 | 0.00 | 0.00 | 32 | 1009.6 |
| 20260503225247 | 75 | 234 | 5.0 | 9.0 | 0.00 | 0.00 | 0.00 | 33 | 1009.7 |
| 20260503224731 | 75 | 252 | 7.0 | 10.0 | 0.00 | 0.00 | 0.00 | 33 | 1009.7 |
| 20260503224513 | 74 | 229 | 3.0 | 7.0 | 0.00 | 0.00 | 0.00 | 32 | 1008.7 |
| 20260503224244 | 75 | 226 | 1.0 | 6.0 | 0.00 | 0.00 | 0.00 | 32 | 1009.6 |
| 20260503223734 | 76 | 226 | 4.0 | 14.0 | 0.00 | 0.00 | 0.00 | 30 | 1009.7 |
| 20260503223243 | 76 | 223 | 7.0 | 14.0 | 0.00 | 0.00 | 0.00 | 31 | 1009.8 |
| 20260503223053 | 76 | 242 | 8.0 | 14.0 | 0.00 | 0.00 | 0.00 | 31 | 1008.9 |
| 20260503222725 | 77 | 282 | 3.0 | 9.0 | 0.00 | 0.00 | 0.00 | 31 | 1009.8 |
| 20260503222237 | 77 | 296 | 3.0 | 9.0 | 0.00 | 0.00 | 0.00 | 33 | 1009.8 |
| 20260503221722 | 76 | 66 | 1.0 | 8.0 | 0.00 | 0.00 | 0.00 | 31 | 1009.8 |
| 20260503221507 | 76 | 10 | 1.0 | 9.0 | 0.00 | 0.00 | 0.00 | 32 | 1008.9 |
| 20260503221257 | 76 | 57 | 2.0 | 11.0 | 0.00 | 0.00 | 0.00 | 33 | 1009.8 |